�������r�C�����j�^�v���󋵏��
Date,Time,5�C6���@���p�r�C��,����,����(m/s)
2021/04/13,00:00,3.9,��,8.7
2021/04/13,00:10,3.9,��쐼,10.3
2021/04/13,00:20,3.9,��쐼,8.5
2021/04/13,00:30,3.7,��,8.8
2021/04/13,00:40,4.0,��,9.1
2021/04/13,00:50,4.0,��쐼,8.6
2021/04/13,01:00,3.9,��쐼,8.6
2021/04/13,01:10,3.9,��쐼,8.5
2021/04/13,01:20,3.7,��쐼,8.5
2021/04/13,01:30,4.0,��쐼,7.5
2021/04/13,01:40,4.0,��쐼,7.6
2021/04/13,01:50,4.0,��쐼,7.5
2021/04/13,02:00,4.1,��,7.9
2021/04/13,02:10,4.1,��쐼,7.2
2021/04/13,02:20,4.0,��쐼,8.0
2021/04/13,02:30,3.9,��쐼,7.1
2021/04/13,02:40,3.9,��쐼,6.8
2021/04/13,02:50,3.9,��쐼,6.6
2021/04/13,03:00,4.0,��쐼,7.8
2021/04/13,03:10,4.0,��,8.8
2021/04/13,03:20,3.9,��쐼,7.5
2021/04/13,03:30,4.0,��,8.9
2021/04/13,03:40,3.9,��쐼,9.6
2021/04/13,03:50,3.8,��,9.4
2021/04/13,04:00,3.9,��,8.9
2021/04/13,04:10,3.9,��쐼,8.3
2021/04/13,04:20,3.8,��,9.4
2021/04/13,04:30,4.0,��,9.0
2021/04/13,04:40,3.8,��,9.4
2021/04/13,04:50,3.9,��,9.8
2021/04/13,05:00,4.1,��쐼,9.2
2021/04/13,05:10,4.1,��,9.1
2021/04/13,05:20,3.9,��쐼,7.3
2021/04/13,05:30,3.9,��쐼,9.4
2021/04/13,05:40,3.9,��,10.0
2021/04/13,05:50,4.1,��,8.3
2021/04/13,06:00,4.0,��,9.2
2021/04/13,06:10,3.9,��쐼,9.0
2021/04/13,06:20,3.9,��,8.3
2021/04/13,06:30,3.8,��,8.7
2021/04/13,06:40,4.0,��쐼,9.5
2021/04/13,06:50,3.9,��,10.2
2021/04/13,07:00,4.0,��쐼,9.4
2021/04/13,07:10,3.9,��쐼,9.9
2021/04/13,07:20,4.0,��쐼,8.9
2021/04/13,07:30,3.9,��쐼,11.3
2021/04/13,07:40,4.1,��,11.6
2021/04/13,07:50,3.9,��,15.0
2021/04/13,08:00,3.9,��,13.8
2021/04/13,08:10,4.1,��,11.4
2021/04/13,08:20,3.9,��,10.9
2021/04/13,08:30,4.0,��,8.9
2021/04/13,08:40,4.0,��,11.6
2021/04/13,08:50,3.9,��,14.7
2021/04/13,09:00,3.9,��,9.4
2021/04/13,09:10,3.9,��,10.5
2021/04/13,09:20,4.1,��,12.5
2021/04/13,09:30,3.8,��,8.1
2021/04/13,09:40,4.1,��,10.5
2021/04/13,09:50,3.9,��쐼,8.3
2021/04/13,10:00,3.9,��,9.1
2021/04/13,10:10,3.9,��,11.3
2021/04/13,10:20,3.9,��,10.5
2021/04/13,10:30,3.9,��,11.6
2021/04/13,10:40,4.0,��,14.4
2021/04/13,10:50,4.1,��,11.6
2021/04/13,11:00,3.9,��,14.9
2021/04/13,11:10,4.0,��,12.7
2021/04/13,11:20,3.9,��,15.2
2021/04/13,11:30,3.9,��,12.4
2021/04/13,11:40,4.0,��,13.0
2021/04/13,11:50,4.0,��,15.2
2021/04/13,12:00,4.0,��,13.0
2021/04/13,12:10,4.0,��,11.9
2021/04/13,12:20,3.9,��,14.1
2021/04/13,12:30,4.0,��,13.0
2021/04/13,12:40,4.0,��,13.5
2021/04/13,12:50,4.0,��,11.3
2021/04/13,13:00,4.0,��,10.9
2021/04/13,13:10,3.9,��,11.3
2021/04/13,13:20,3.8,��,12.1
2021/04/13,13:30,4.1,��,10.5
2021/04/13,13:40,3.9,��,12.8
2021/04/13,13:50,3.8,��,11.8
2021/04/13,14:00,4.1,��,12.7
2021/04/13,14:10,3.9,��,10.8
2021/04/13,14:20,4.0,��,10.9
2021/04/13,14:30,3.8,��,8.5
2021/04/13,14:40,3.9,��,10.3
2021/04/13,14:50,3.9,��,13.0
2021/04/13,15:00,3.8,��,10.3
2021/04/13,15:10,4.0,��,11.3
2021/04/13,15:20,4.1,��,11.3
2021/04/13,15:30,4.1,��,13.0
2021/04/13,15:40,3.8,��,14.6
2021/04/13,15:50,4.0,��,11.0
2021/04/13,16:00,3.9,��,10.5
2021/04/13,16:10,4.0,��쐼,11.9
2021/04/13,16:20,4.0,��,11.6
2021/04/13,16:30,4.0,��,11.8
2021/04/13,16:40,3.8,��,8.3
2021/04/13,16:50,3.9,��,12.4
2021/04/13,17:00,4.0,��,13.1
2021/04/13,17:10,4.0,��,10.8
2021/04/13,17:20,4.0,��,11.3
2021/04/13,17:30,4.0,��,13.0
2021/04/13,17:40,3.8,��,13.1
2021/04/13,17:50,3.8,��,11.6
2021/04/13,18:00,4.0,��,12.7
2021/04/13,18:10,4.1,��,13.3
2021/04/13,18:20,4.1,��,13.0
2021/04/13,18:30,3.9,��,12.7
2021/04/13,18:40,4.0,��,12.4
2021/04/13,18:50,3.9,��,13.6
2021/04/13,19:00,4.0,��,14.4
2021/04/13,19:10,3.9,��,13.3
2021/04/13,19:20,4.0,��,14.7
2021/04/13,19:30,3.9,��,14.2
2021/04/13,19:40,3.9,��,13.0
2021/04/13,19:50,3.7,��,13.3
2021/04/13,20:00,4.0,��,12.8
2021/04/13,20:10,3.8,��,11.6
2021/04/13,20:20,4.0,��,11.1
2021/04/13,20:30,4.0,��,13.0
2021/04/13,20:40,3.9,��,11.7
2021/04/13,20:50,3.8,��,10.7
2021/04/13,21:00,4.0,��,11.9
2021/04/13,21:10,3.8,��,12.2
2021/04/13,21:20,3.8,��쐼,11.0
2021/04/13,21:30,3.7,��,12.0
2021/04/13,21:40,4.0,��,11.6
2021/04/13,21:50,3.9,��,12.0
2021/04/13,22:00,3.9,��,9.9
2021/04/13,22:10,4.0,��,10.2
2021/04/13,22:20,4.0,��,9.1
2021/04/13,22:30,3.7,��,8.2
2021/04/13,22:40,3.8,��,8.7
2021/04/13,22:50,3.9,��,8.6
2021/04/13,23:00,3.9,��,8.3
2021/04/13,23:10,3.9,��,8.4
2021/04/13,23:20,3.9,��,8.6
2021/04/13,23:30,4.0,��,6.1
2021/04/13,23:40,4.0,��,5.6
2021/04/13,23:50,3.9,��,6.8
